This demonstration page uses our WeatherBlox Daily Observations layout. Learn more.

Left ArrowRight Arrow

Hourly Observations for February 6, 2020

Temp ( °F °C ) Dew Point ( °F °C ) Humidity (%) Winds ( mph kmh ) Pressure ( in mb ) Visibility ( mi km ) Precip ( " mm )
12:30 am 00:30 Cloudy with Mist and Fog 47 8.3 46 7.8 97 97 NE 3 6 29.85 1011 1 2 0.00 0.00
12:46 am 00:46 Cloudy with Mist and Fog 47 8.3 46 7.8 97 97 NE 3 6 29.84 1011 1 1 0.00 0.00
12:59 am 00:59 Mostly Cloudy with Fog 47 8.3 47 8.3 100 100 Calm 29.83 1010 1 1 0.00 0.00
1:24 am 01:24 Cloudy with Mist and Fog 47 8.3 47 8.3 100 100 Calm 29.82 1010 1 1 0.00 0.00
1:59 am 01:59 Cloudy with Mist and Fog 48 8.9 47 8.3 96 96 Calm 29.81 1010 1 2 0.00 0.00
2:18 am 02:18 Cloudy with Mist and Fog 48 8.9 47 8.3 96 96 Calm 29.80 1009 2 3 0.00 0.00
2:28 am 02:28 Cloudy with Mist and Fog 48 8.9 47 8.3 96 96 Calm 29.79 1009 3 5 0.00 0.00
2:59 am 02:59 Cloudy with Mist and Fog 50 10 48 8.9 93 93 Calm 29.80 1009 3 5 0.00 0.00
3:47 am 03:47 Mostly Cloudy with Fog 49 9.4 47 8.3 93 93 Calm 29.76 1008 1 1 0.00 0.00
3:59 am 03:59 Mostly Cloudy with Fog 49 9.4 47 8.3 93 93 Calm 29.74 1007 1 1 0.00 0.00
4:25 am 04:25 Cloudy with Mist and Fog 49 9.4 47 8.3 93 93 Calm 29.75 1007 2 2 0.00 0.00
4:59 am 04:59 Cloudy with Mist and Fog 49 9.4 47 8.3 93 93 N 5 7 29.76 1008 2 3 0.00 0.00
5:07 am 05:07 Cloudy with Mist and Fog 49 9.4 47 8.3 93 93 Calm 29.75 1007 2 3 0.00 0.00
5:37 am 05:37 Cloudy with Mist and Fog 49 9.4 47 8.3 93 93 Calm 29.73 1007 4 6 0.00 0.00
5:59 am 05:59 Cloudy with Mist and Fog 49 9.4 47 8.3 93 93 Calm 29.73 1007 4 6 0.00 0.00
6:59 am 06:59 Cloudy with Mist and Fog 49 9.4 47 8.3 93 93 Calm 29.72 1007 4 6 0.00 0.00
7:59 am 07:59 Cloudy with Light Rain 49 9.4 47 8.3 93 93 S 9 15 29.70 1006 3 5 0.03 0.76
8:43 am 08:43 Partly Cloudy with Light Rain N/A N/A N/A undefined N/A N/A N/A 0.00 0.00
8:59 am 08:59 Partly Cloudy with Light Rain N/A N/A N/A undefined N/A 29.68 1005 N/A 0.00 0.00
9:59 am 09:59 Cloudy with Light Rain 59 15 58 14.4 96 96 S 12 19 29.67 1005 3 5 0.02 0.51
10:20 am 10:20 Partly Cloudy with Light Rain N/A N/A N/A undefined N/A N/A N/A 0.00 0.00
10:34 am 10:34 Cloudy with Light Rain 61 16.1 59 15 93 93 SSW 12 19 29.63 1003 5 8 0.00 0.00
10:59 am 10:59 Cloudy with Light Rain 61 16.1 59 15 93 93 S 12 19 29.63 1003 5 8 0.00 0.00
11:06 am 11:06 Cloudy with Light Rain 61 16.1 59 15 93 93 S 12 19 29.62 1003 4 6 0.00 0.00
11:55 am 11:55 Cloudy with Rain 63 17 63 17 100 100 S 12 19 29.58 1002 2 3 0.13 3.30
11:59 am 11:59 Cloudy with Rain 63 17.2 63 17.2 100 100 S 12 19 29.57 1002 2 3 0.13 3.30
12:08 pm 12:08 Cloudy with Light Rain 63 17.2 63 17.2 100 100 S 12 19 29.56 1001 5 8 0.00 0.00
12:59 pm 12:59 Cloudy with Mist and Fog 63 17.2 63 17.2 100 100 S 12 19 29.51 999 5 8 0.03 0.76
1:15 pm 13:15 Cloudy with Thunderstorms 63 17.2 63 17.2 100 100 S 12 19 29.50 999 5 8 0.03 0.76
1:59 pm 13:59 Cloudy with Light Rain 67 19.4 65 18.3 93 93 SSW 6 9 29.47 998 6 10 0.00 0.00
2:59 pm 14:59 Mostly Cloudy 70 21.1 68 20 93 93 S 9 15 29.39 995 8 13 0.00 0.00
3:59 pm 15:59 Cloudy with Strong Thunderstorms 70 21.1 68 20 93 93 WNW 32 52 29.46 998 10 16 0.10 2.54
4:25 pm 16:25 Cloudy with Light Rain 57 13.9 56 13.3 96 96 W 12 19 29.47 998 5 8 0.00 0.00
4:59 pm 16:59 Cloudy with Light Rain 57 13.9 56 13.3 96 96 S 3 6 29.46 998 5 8 0.14 3.56
5:59 pm 17:59 Cloudy with Light Rain 61 16.1 59 15 93 93 SSW 5 7 29.48 998 6 10 0.07 1.78
6:59 pm 18:59 Cloudy with Light Rain 61 16.1 59 15 93 93 S 9 15 29.48 998 4 6 0.18 4.57
7:59 pm 19:59 Cloudy with Light Rain 60 15.6 59 15 96 96 S 7 11 29.46 998 5 8 0.19 4.83
8:59 pm 20:59 Cloudy with Light Rain 60 15.6 60 15.6 100 100 S 7 11 29.44 997 5 8 0.22 5.59
9:59 pm 21:59 Cloudy with Light Rain 61 16.1 61 16.1 100 100 S 7 11 29.49 999 6 10 0.05 1.27
10:27 pm 22:27 Cloudy with Light Rain 61 16.1 61 16.1 100 100 SSW 6 9 29.48 998 7 11 0.00 0.00
10:59 pm 22:59 Cloudy with Light Rain 62 16.7 61 16.1 96 96 SSW 5 7 29.46 998 6 10 0.14 3.56
11:59 pm 23:59 Cloudy with Light Rain 62 16.7 60 15.6 93 93 S 8 13 29.48 998 6 10 0.12 3.05

Powered by AerisWeather